Location: Home
(42.5358°N, 72.7383°W)
Time: 01:18:49
(UTC-05:00)

Vanguard 3 - Pass Details

Date: 08 December 2021
Orbit: 508 x 3260 km, 33.3° (Epoch: 21 January)

Event Time Altitude Azimuth Distance (km) Brightness Sun altitude
Rises 09:31:14 0° 279° (W) 6,817 11.5 18.0°
Reaches altitude 10° 09:38:43 10° 262° (W) 5,311 11.1 18.7°
Maximum altitude 09:46:10 16° 232° (SW) 4,188 11.0 19.3°
Drops below altitude 10° 09:52:06 10° 199° (SSW) 4,033 11.5 19.9°
Sets 09:56:31 0° 178° (S) 4,503 12.1 20.2°
